Hourly Data Report for June 23, 2021

MANIWAKI AIRPORT
QUEBEC
Current Station Operator: ECCC - MSC

46°16'29.000" N
75°59'31.000" W
199.70 m
7034482
71721
WMJ

Download Data

Hourly Data (June 2021)
Hourly Data Report for June 23, 2021
TIME
LST
Temp Definition
°C
Dew Point Definition
°C
Rel Hum Definition
%
Precip. Amount Definition
mm

Wind Dir Definition
10's deg

Wind Spd Definition
km/h
Visibility Definition
km
Stn Press Definition
kPa
Hmdx Definition


Wind Chill Definition


Weather Definition


00:00 5.5 5.1 97 0.0   0   99.04     LegendNANA
01:00 5.0 4.7 98 0.0   0   99.06     LegendNANA
02:00 3.5 3.1 97 0.0   0   99.08     LegendNANA
03:00 2.5 2.1 98 0.0 14 2   99.14     LegendNANA
04:00 1.7 1.5 98 0.0 0 1   99.20     LegendNANA
05:00 3.2 2.9 98 0.0 22 2   99.28     LegendNANA
06:00 6.6 5.7 94 0.0 0 1   99.37     LegendNANA
07:00 10.7 6.8 77 0.0 18 4   99.41     LegendNANA
08:00 13.4 7.1 65 0.0 20 4   99.48     LegendNANA
09:00 15.2 5.7 53 0.0 23 8   99.52     LegendNANA
10:00 16.5 4.7 45 0.0 23 9   99.52     LegendNANA
11:00 18.2 5.2 42 0.0 23 11   99.53     LegendNANA
12:00 17.9 4.2 40 0.0 21 16   99.52     LegendNANA
13:00 18.7 5.2 41 0.0 22 20   99.53     LegendNANA
14:00 19.3 5.0 39 0.0 22 19   99.53     LegendNANA
15:00 20.6 5.9 38 0.0 25 18   99.53     LegendNANA
16:00 20.0 5.3 38 0.0 22 20   99.54     LegendNANA
17:00 20.8 7.1 41 0.0 22 14   99.53     LegendNANA
18:00 19.4 5.4 40 0.0 22 15   99.55     LegendNANA
19:00 18.8 6.5 45 0.0 19 8   99.58     LegendNANA
20:00 15.8 7.0 56 0.0 20 4   99.61     LegendNANA
21:00 11.6 7.2 74 0.0   0   99.66     LegendNANA
22:00 14.1 6.3 59 0.0 18 10   99.70     LegendNANA
23:00 13.6 7.9 68 0.0 19 9   99.71     LegendNANA

Notes on Data Quality.

Legend

  • E = Estimated
  • M = Missing
  • NA = Not Available*
  • [empty] = Indicates an unobserved value
Date modified: